Flag for Germany Weather past 2 weeks in Freiberg, Saxony, Germany

Now
59 °F

Clear.


Feels Like: 58 °F
Forecast: 51 / 63 °F
Wind: 7 mph from Southwest

Location: Dresden-Klotzsche

Current Time: Aug 22, 2014 at 10:23:59 PM

Latest Report: Aug 22, 2014 at 9:50 PM


Visibility: 10 mi

Pressure: 29.92 "Hg

Humidity: 55%

Dew point: 43 °F

Location of FreibergLocation

Historic Weather in Freiberg — Graph

°F

Freiberg temperature yesterday

Maximum temperature yesterday: 66 °F (at 12:50 PM)
Minimum temperature yesterday: 50 °F (at 4:20 AM)
Average temperature yesterday: 58 °F

Past Weeks' High & Low Weather Summary

 TemperatureHumidityPressure
High84 °F (Aug 10, 4:20 PM)100% (Aug 8, 6:20 AM)30.01 "Hg (Aug 8, 6:20 AM)
Low48 °F (Aug 22, 3:50 AM)33% (Aug 12, 3:20 PM)29.65 "Hg (Aug 13, 6:50 PM)
Average63 °F66%29.89 "Hg
* Reported Aug 7 9:20 PM — Aug 22 9:20 PM, Freiberg, Weather by CustomWeather, © 2014

Note: Actual official high and low records may vary slightly from our data, if they occured in-between our weather recording intervals... More about our weather records

Advertising

Freiberg weather history for previous 24 hours

 ConditionsComfort  
Time TempWeatherWind HumidityBarometerVisibility
9:20 PM
Aug 22
61 °FClear.6 mph52%29.92 "Hg10 mi
8:50 PM61 °FSunny.6 mph52%29.92 "Hg10 mi
8:20 PM61 °FSunny.5 mph52%29.92 "Hg10 mi
7:50 PM63 °FSunny.6 mph45%29.92 "Hg10 mi
7:20 PM64 °FSunny.6 mph43%29.92 "Hg10 mi
6:50 PM66 °FSunny.8 mph40%29.92 "Hg10 mi
6:20 PM66 °FSunny.7 mph37%29.92 "Hg10 mi
5:50 PM68 °FSunny.8 mph40%29.92 "Hg10 mi
5:20 PM68 °FSunny.8 mph38%29.92 "Hg10 mi
4:50 PM68 °FSunny.6 mph38%29.92 "Hg10 mi
4:20 PM68 °FSunny.10 mph38%29.92 "Hg10 mi
3:50 PM68 °FSunny.7 mph38%29.95 "Hg10 mi
3:20 PM68 °FSunny.6 mph35%29.95 "Hg10 mi
2:50 PM68 °FPassing clouds.8 mph35%29.95 "HgN/A
2:20 PM68 °FSunny.8 mph35%29.95 "Hg10 mi
1:50 PM68 °FScattered clouds.10 mph38%29.95 "HgN/A
1:20 PM70 °FScattered clouds.7 mph35%29.95 "HgN/A
12:50 PM68 °FScattered clouds.10 mph38%29.98 "HgN/A
12:20 PM68 °FScattered clouds.9 mph38%29.98 "HgN/A
11:50 AM66 °FScattered clouds.7 mph43%29.98 "HgN/A
11:20 AM64 °FScattered clouds.7 mph52%29.98 "HgN/A
10:50 AM63 °FScattered clouds.7 mph59%29.98 "HgN/A
10:20 AM59 °FScattered clouds.6 mph72%29.98 "HgN/A
9:50 AM57 °FPartly sunny.7 mph72%29.98 "HgN/A
9:20 AM57 °FSunny.7 mph72%29.98 "Hg10 mi
8:50 AM54 °FSunny.8 mph77%29.98 "Hg10 mi
8:20 AM52 °FSunny.7 mph82%29.98 "Hg10 mi
7:50 AM52 °FSunny.7 mph77%29.98 "Hg10 mi
7:20 AM50 °FSunny.8 mph82%29.98 "Hg10 mi
6:50 AM50 °FClear.6 mph82%29.98 "Hg10 mi
6:20 AM48 °FClear.8 mph87%29.98 "Hg10 mi
5:50 AM48 °FClear.7 mph87%29.98 "Hg10 mi
5:20 AM48 °FClear.8 mph87%29.98 "Hg10 mi
4:20 AM48 °FClear.8 mph87%29.98 "Hg10 mi
3:50 AM48 °FClear.6 mph87%29.98 "Hg10 mi
3:20 AM50 °FClear.7 mph82%30.01 "Hg10 mi
2:50 AM50 °FClear.7 mph88%30.01 "Hg10 mi
2:20 AM52 °FClear.8 mph82%30.01 "Hg10 mi
1:50 AM52 °FClear.6 mph82%30.01 "Hg10 mi
1:20 AM54 °FClear.8 mph77%30.01 "Hg10 mi
12:50 AM54 °FClear.6 mph77%30.01 "Hg10 mi
12:20 AM54 °FClear.6 mph77%30.01 "Hg10 mi
11:50 PM
Aug 21
54 °FClear.5 mph77%30.01 "Hg10 mi
11:20 PM55 °FClear.3 mph67%30.01 "Hg10 mi
10:50 PM55 °FClear.5 mph67%30.01 "Hg10 mi
10:20 PM57 °FClear.2 mph63%30.01 "Hg10 mi
Weather by CustomWeather, © 2014

See weather overviewHow to use our weather pages